owner,sensor,date,latitude,longitude,air_temperature,qcFlag 
TCOON,ioos:station:TCOON:057:1,2015-06-01T00:06:00Z,28.4460,-96.3961,26.8,1111122 
TCOON,ioos:station:TCOON:057:1,2015-06-01T01:06:00Z,28.4460,-96.3961,26.1,1111122 
TCOON,ioos:station:TCOON:057:1,2015-06-01T02:12:00Z,28.4460,-96.3961,25.8,1111122 
TCOON,ioos:station:TCOON:057:1,2015-06-01T03:06:00Z,28.4460,-96.3961,25.4,1111122 
TCOON,ioos:station:TCOON:057:1,2015-06-01T04:12:00Z,28.4460,-96.3961,25.1,1111122 
TCOON,ioos:station:TCOON:057:1,2015-06-01T05:18:00Z,28.4460,-96.3961,25.1,1111122 
TCOON,ioos:station:TCOON:057:1,2015-06-01T06:24:00Z,28.4460,-96.3961,25.0,1111122 
TCOON,ioos:station:TCOON:057:1,2015-06-01T07:24:00Z,28.4460,-96.3961,24.1,1111122 
TCOON,ioos:station:TCOON:057:1,2015-06-01T08:12:00Z,28.4460,-96.3961,23.9,1111122 
TCOON,ioos:station:TCOON:057:1,2015-06-01T09:12:00Z,28.4460,-96.3961,23.5,1111122 
TCOON,ioos:station:TCOON:057:1,2015-06-01T10:06:00Z,28.4460,-96.3961,23.5,1111122 
TCOON,ioos:station:TCOON:057:1,2015-06-01T11:12:00Z,28.4460,-96.3961,24.4,1111122 
TCOON,ioos:station:TCOON:057:1,2015-06-01T12:06:00Z,28.4460,-96.3961,25.1,1111122 
TCOON,ioos:station:TCOON:057:1,2015-06-01T13:06:00Z,28.4460,-96.3961,25.2,1111122 
TCOON,ioos:station:TCOON:057:1,2015-06-01T14:24:00Z,28.4460,-96.3961,25.1,1111122 
TCOON,ioos:station:TCOON:057:1,2015-06-01T15:12:00Z,28.4460,-96.3961,25.1,1111122 
TCOON,ioos:station:TCOON:057:1,2015-06-01T16:18:00Z,28.4460,-96.3961,25.8,1111122 
TCOON,ioos:station:TCOON:057:1,2015-06-01T17:12:00Z,28.4460,-96.3961,26.3,1111122 
TCOON,ioos:station:TCOON:057:1,2015-06-01T18:06:00Z,28.4460,-96.3961,27.3,1111122 
TCOON,ioos:station:TCOON:057:1,2015-06-01T19:12:00Z,28.4460,-96.3961,28.1,1111122 
TCOON,ioos:station:TCOON:057:1,2015-06-01T20:18:00Z,28.4460,-96.3961,28.3,1111122 
TCOON,ioos:station:TCOON:057:1,2015-06-01T21:12:00Z,28.4460,-96.3961,28.2,1111122 
TCOON,ioos:station:TCOON:057:1,2015-06-01T22:42:00Z,28.4460,-96.3961,28.1,1111122 
TCOON,ioos:station:TCOON:057:1,2015-06-01T23:18:00Z,28.4460,-96.3961,28.3,1111122 
TCOON,ioos:station:TCOON:057:1,2015-06-02T00:06:00Z,28.4460,-96.3961,27.8,1111122 
TCOON,ioos:station:TCOON:057:1,2015-06-02T01:06:00Z,28.4460,-96.3961,27.4,1111122 
TCOON,ioos:station:TCOON:057:1,2015-06-02T02:06:00Z,28.4460,-96.3961,27.3,1111122 
TCOON,ioos:station:TCOON:057:1,2015-06-02T03:12:00Z,28.4460,-96.3961,27.0,1111122 
TCOON,ioos:station:TCOON:057:1,2015-06-02T04:12:00Z,28.4460,-96.3961,25.9,1111122 
TCOON,ioos:station:TCOON:057:1,2015-06-02T05:18:00Z,28.4460,-96.3961,25.8,1111122 
TCOON,ioos:station:TCOON:057:1,2015-06-02T07:12:00Z,28.4460,-96.3961,25.6,1111122 
TCOON,ioos:station:TCOON:057:1,2015-06-02T08:12:00Z,28.4460,-96.3961,25.5,1111122 
TCOON,ioos:station:TCOON:057:1,2015-06-02T09:12:00Z,28.4460,-96.3961,24.6,1111122 
TCOON,ioos:station:TCOON:057:1,2015-06-02T10:06:00Z,28.4460,-96.3961,24.5,1111122 
TCOON,ioos:station:TCOON:057:1,2015-06-02T11:12:00Z,28.4460,-96.3961,24.7,1111122 
TCOON,ioos:station:TCOON:057:1,2015-06-02T12:06:00Z,28.4460,-96.3961,25.4,1111122 
TCOON,ioos:station:TCOON:057:1,2015-06-02T13:06:00Z,28.4460,-96.3961,27.9,1111122 
TCOON,ioos:station:TCOON:057:1,2015-06-02T14:06:00Z,28.4460,-96.3961,28.7,1111122 
TCOON,ioos:station:TCOON:057:1,2015-06-02T15:06:00Z,28.4460,-96.3961,28.5,1111122 
TCOON,ioos:station:TCOON:057:1,2015-06-02T16:06:00Z,28.4460,-96.3961,27.5,1111122 
TCOON,ioos:station:TCOON:057:1,2015-06-02T17:06:00Z,28.4460,-96.3961,27.1,1111122 
TCOON,ioos:station:TCOON:057:1,2015-06-02T18:12:00Z,28.4460,-96.3961,27.2,1111122 
TCOON,ioos:station:TCOON:057:1,2015-06-02T19:12:00Z,28.4460,-96.3961,27.1,1111122 
TCOON,ioos:station:TCOON:057:1,2015-06-02T20:18:00Z,28.4460,-96.3961,27.2,1111122 
TCOON,ioos:station:TCOON:057:1,2015-06-02T21:12:00Z,28.4460,-96.3961,27.3,1111122 
TCOON,ioos:station:TCOON:057:1,2015-06-02T22:18:00Z,28.4460,-96.3961,27.7,1111122 
TCOON,ioos:station:TCOON:057:1,2015-06-02T23:12:00Z,28.4460,-96.3961,27.9,1111122 
TCOON,ioos:station:TCOON:057:1,2015-06-03T00:06:00Z,28.4460,-96.3961,27.9,1111122 
TCOON,ioos:station:TCOON:057:1,2015-06-03T01:06:00Z,28.4460,-96.3961,27.7,1111122 
TCOON,ioos:station:TCOON:057:1,2015-06-03T02:12:00Z,28.4460,-96.3961,27.3,1111122 
TCOON,ioos:station:TCOON:057:1,2015-06-03T03:06:00Z,28.4460,-96.3961,27.3,1111122 
TCOON,ioos:station:TCOON:057:1,2015-06-03T04:18:00Z,28.4460,-96.3961,27.5,1111122 
TCOON,ioos:station:TCOON:057:1,2015-06-03T05:18:00Z,28.4460,-96.3961,27.1,1111122 
TCOON,ioos:station:TCOON:057:1,2015-06-03T07:12:00Z,28.4460,-96.3961,26.8,1111122 
TCOON,ioos:station:TCOON:057:1,2015-06-03T08:18:00Z,28.4460,-96.3961,26.7,1111122 
TCOON,ioos:station:TCOON:057:1,2015-06-03T09:12:00Z,28.4460,-96.3961,26.7,1111122 
TCOON,ioos:station:TCOON:057:1,2015-06-03T10:06:00Z,28.4460,-96.3961,26.5,1111122 
TCOON,ioos:station:TCOON:057:1,2015-06-03T11:06:00Z,28.4460,-96.3961,26.5,1111122 
TCOON,ioos:station:TCOON:057:1,2015-06-03T12:18:00Z,28.4460,-96.3961,25.5,1111122 
TCOON,ioos:station:TCOON:057:1,2015-06-03T13:18:00Z,28.4460,-96.3961,26.7,1111122 
TCOON,ioos:station:TCOON:057:1,2015-06-03T14:18:00Z,28.4460,-96.3961,27.2,1111122 
TCOON,ioos:station:TCOON:057:1,2015-06-03T15:12:00Z,28.4460,-96.3961,27.4,1111122 
TCOON,ioos:station:TCOON:057:1,2015-06-03T16:12:00Z,28.4460,-96.3961,28.4,1111122 
TCOON,ioos:station:TCOON:057:1,2015-06-03T17:12:00Z,28.4460,-96.3961,27.8,1111122 
TCOON,ioos:station:TCOON:057:1,2015-06-03T18:12:00Z,28.4460,-96.3961,27.7,1111122 
TCOON,ioos:station:TCOON:057:1,2015-06-03T19:12:00Z,28.4460,-96.3961,28.0,1111122 
TCOON,ioos:station:TCOON:057:1,2015-06-03T20:12:00Z,28.4460,-96.3961,28.0,1111122 
TCOON,ioos:station:TCOON:057:1,2015-06-03T21:12:00Z,28.4460,-96.3961,27.8,1111122 
TCOON,ioos:station:TCOON:057:1,2015-06-03T22:12:00Z,28.4460,-96.3961,27.9,1111122 
TCOON,ioos:station:TCOON:057:1,2015-06-03T23:12:00Z,28.4460,-96.3961,27.9,1111122 
TCOON,ioos:station:TCOON:057:1,2015-06-04T00:06:00Z,28.4460,-96.3961,28.0,1111122 
TCOON,ioos:station:TCOON:057:1,2015-06-04T01:06:00Z,28.4460,-96.3961,27.4,1111122 
TCOON,ioos:station:TCOON:057:1,2015-06-04T02:06:00Z,28.4460,-96.3961,27.0,1111122 
TCOON,ioos:station:TCOON:057:1,2015-06-04T03:12:00Z,28.4460,-96.3961,27.1,1111122 
TCOON,ioos:station:TCOON:057:1,2015-06-04T04:06:00Z,28.4460,-96.3961,27.0,1111122 
TCOON,ioos:station:TCOON:057:1,2015-06-04T05:12:00Z,28.4460,-96.3961,26.8,1111122 
TCOON,ioos:station:TCOON:057:1,2015-06-04T07:06:00Z,28.4460,-96.3961,26.7,1111122 
TCOON,ioos:station:TCOON:057:1,2015-06-04T08:06:00Z,28.4460,-96.3961,26.6,1111122 
TCOON,ioos:station:TCOON:057:1,2015-06-04T09:12:00Z,28.4460,-96.3961,26.5,1111122 
TCOON,ioos:station:TCOON:057:1,2015-06-04T10:06:00Z,28.4460,-96.3961,26.4,1111122 
TCOON,ioos:station:TCOON:057:1,2015-06-04T11:12:00Z,28.4460,-96.3961,26.4,1111122 
TCOON,ioos:station:TCOON:057:1,2015-06-04T12:12:00Z,28.4460,-96.3961,26.6,1111122 
TCOON,ioos:station:TCOON:057:1,2015-06-04T13:12:00Z,28.4460,-96.3961,26.8,1111122 
TCOON,ioos:station:TCOON:057:1,2015-06-04T14:06:00Z,28.4460,-96.3961,28.1,1111122 
TCOON,ioos:station:TCOON:057:1,2015-06-04T15:12:00Z,28.4460,-96.3961,28.4,1111122 
TCOON,ioos:station:TCOON:057:1,2015-06-04T16:12:00Z,28.4460,-96.3961,28.0,1111122 
TCOON,ioos:station:TCOON:057:1,2015-06-04T17:12:00Z,28.4460,-96.3961,28.2,1111122 
TCOON,ioos:station:TCOON:057:1,2015-06-04T18:18:00Z,28.4460,-96.3961,28.2,1111122 
TCOON,ioos:station:TCOON:057:1,2015-06-04T19:12:00Z,28.4460,-96.3961,28.4,1111122 
TCOON,ioos:station:TCOON:057:1,2015-06-04T20:12:00Z,28.4460,-96.3961,28.3,1111122 
TCOON,ioos:station:TCOON:057:1,2015-06-04T21:12:00Z,28.4460,-96.3961,28.4,1111122 
TCOON,ioos:station:TCOON:057:1,2015-06-05T14:36:00Z,28.4460,-96.3961,27.0,1111122 
TCOON,ioos:station:TCOON:057:1,2015-06-05T15:12:00Z,28.4460,-96.3961,28.1,1111122 
TCOON,ioos:station:TCOON:057:1,2015-06-05T16:12:00Z,28.4460,-96.3961,28.7,1111122 
TCOON,ioos:station:TCOON:057:1,2015-06-05T17:12:00Z,28.4460,-96.3961,28.4,1111122 
TCOON,ioos:station:TCOON:057:1,2015-06-05T18:12:00Z,28.4460,-96.3961,28.4,1111122 
TCOON,ioos:station:TCOON:057:1,2015-06-05T19:12:00Z,28.4460,-96.3961,28.6,1111122 
TCOON,ioos:station:TCOON:057:1,2015-06-05T20:12:00Z,28.4460,-96.3961,28.5,1111122 
TCOON,ioos:station:TCOON:057:1,2015-06-05T21:12:00Z,28.4460,-96.3961,28.5,1111122 
TCOON,ioos:station:TCOON:057:1,2015-06-05T22:12:00Z,28.4460,-96.3961,27.7,1111122 
TCOON,ioos:station:TCOON:057:1,2015-06-05T23:06:00Z,28.4460,-96.3961,27.7,1111122 
TCOON,ioos:station:TCOON:057:1,2015-06-06T00:06:00Z,28.4460,-96.3961,27.6,1111122 
TCOON,ioos:station:TCOON:057:1,2015-06-06T01:06:00Z,28.4460,-96.3961,27.3,1111122 
TCOON,ioos:station:TCOON:057:1,2015-06-06T02:12:00Z,28.4460,-96.3961,27.2,1111122 
TCOON,ioos:station:TCOON:057:1,2015-06-06T03:06:00Z,28.4460,-96.3961,27.0,1111122 
TCOON,ioos:station:TCOON:057:1,2015-06-06T04:36:00Z,28.4460,-96.3961,27.0,1111122 
TCOON,ioos:station:TCOON:057:1,2015-06-06T05:06:00Z,28.4460,-96.3961,26.9,1111122 
TCOON,ioos:station:TCOON:057:1,2015-06-06T06:30:00Z,28.4460,-96.3961,26.9,1111122 
TCOON,ioos:station:TCOON:057:1,2015-06-06T07:18:00Z,28.4460,-96.3961,26.0,1111122 
TCOON,ioos:station:TCOON:057:1,2015-06-06T08:18:00Z,28.4460,-96.3961,25.9,1111122 
TCOON,ioos:station:TCOON:057:1,2015-06-06T09:24:00Z,28.4460,-96.3961,26.1,1111122 
TCOON,ioos:station:TCOON:057:1,2015-06-06T10:12:00Z,28.4460,-96.3961,26.2,1111122 
TCOON,ioos:station:TCOON:057:1,2015-06-06T11:12:00Z,28.4460,-96.3961,26.2,1111122 
TCOON,ioos:station:TCOON:057:1,2015-06-06T12:18:00Z,28.4460,-96.3961,27.5,1111122 
TCOON,ioos:station:TCOON:057:1,2015-06-06T13:18:00Z,28.4460,-96.3961,27.6,1111122 
TCOON,ioos:station:TCOON:057:1,2015-06-06T14:12:00Z,28.4460,-96.3961,27.9,1111122 
TCOON,ioos:station:TCOON:057:1,2015-06-06T15:12:00Z,28.4460,-96.3961,28.9,1111122 
TCOON,ioos:station:TCOON:057:1,2015-06-06T16:18:00Z,28.4460,-96.3961,28.0,1111122 
TCOON,ioos:station:TCOON:057:1,2015-06-06T17:06:00Z,28.4460,-96.3961,27.7,1111122 
TCOON,ioos:station:TCOON:057:1,2015-06-06T18:12:00Z,28.4460,-96.3961,27.8,1111122 
TCOON,ioos:station:TCOON:057:1,2015-06-06T19:12:00Z,28.4460,-96.3961,27.9,1111122 
TCOON,ioos:station:TCOON:057:1,2015-06-06T20:12:00Z,28.4460,-96.3961,28.2,1111122 
TCOON,ioos:station:TCOON:057:1,2015-06-06T21:12:00Z,28.4460,-96.3961,28.5,1111122 
TCOON,ioos:station:TCOON:057:1,2015-06-06T22:12:00Z,28.4460,-96.3961,28.6,1111122 
TCOON,ioos:station:TCOON:057:1,2015-06-06T23:12:00Z,28.4460,-96.3961,28.6,1111122 
TCOON,ioos:station:TCOON:057:1,2015-06-07T00:12:00Z,28.4460,-96.3961,28.7,1111122 
TCOON,ioos:station:TCOON:057:1,2015-06-07T01:06:00Z,28.4460,-96.3961,28.1,1111122 
TCOON,ioos:station:TCOON:057:1,2015-06-07T02:06:00Z,28.4460,-96.3961,28.0,1111122 
TCOON,ioos:station:TCOON:057:1,2015-06-07T03:06:00Z,28.4460,-96.3961,27.9,1111122 
TCOON,ioos:station:TCOON:057:1,2015-06-07T04:12:00Z,28.4460,-96.3961,27.9,1111122 
TCOON,ioos:station:TCOON:057:1,2015-06-07T05:12:00Z,28.4460,-96.3961,27.9,1111122 
TCOON,ioos:station:TCOON:057:1,2015-06-07T07:00:00Z,28.4460,-96.3961,26.8,1111122 
TCOON,ioos:station:TCOON:057:1,2015-06-07T08:18:00Z,28.4460,-96.3961,26.1,1111122 
TCOON,ioos:station:TCOON:057:1,2015-06-07T09:12:00Z,28.4460,-96.3961,25.9,1111122 
TCOON,ioos:station:TCOON:057:1,2015-06-07T10:12:00Z,28.4460,-96.3961,26.0,1111122 
TCOON,ioos:station:TCOON:057:1,2015-06-07T11:12:00Z,28.4460,-96.3961,26.2,1111122 
TCOON,ioos:station:TCOON:057:1,2015-06-07T12:24:00Z,28.4460,-96.3961,26.6,1111122 
TCOON,ioos:station:TCOON:057:1,2015-06-07T13:12:00Z,28.4460,-96.3961,27.2,1111122 
TCOON,ioos:station:TCOON:057:1,2015-06-07T14:12:00Z,28.4460,-96.3961,27.8,1111122 
TCOON,ioos:station:TCOON:057:1,2015-06-07T15:06:00Z,28.4460,-96.3961,28.1,1111122 
TCOON,ioos:station:TCOON:057:1,2015-06-07T16:18:00Z,28.4460,-96.3961,27.9,1111122 
TCOON,ioos:station:TCOON:057:1,2015-06-07T17:06:00Z,28.4460,-96.3961,28.1,1111122 
TCOON,ioos:station:TCOON:057:1,2015-06-07T18:12:00Z,28.4460,-96.3961,28.4,1111122 
TCOON,ioos:station:TCOON:057:1,2015-06-07T19:12:00Z,28.4460,-96.3961,28.2,1111122 
TCOON,ioos:station:TCOON:057:1,2015-06-07T20:12:00Z,28.4460,-96.3961,28.3,1111122 
TCOON,ioos:station:TCOON:057:1,2015-06-07T21:12:00Z,28.4460,-96.3961,28.4,1111122 
TCOON,ioos:station:TCOON:057:1,2015-06-07T22:12:00Z,28.4460,-96.3961,28.4,1111122 
TCOON,ioos:station:TCOON:057:1,2015-06-07T23:12:00Z,28.4460,-96.3961,28.4,1111122 
TCOON,ioos:station:TCOON:057:1,2015-06-08T00:12:00Z,28.4460,-96.3961,28.2,1111122 
TCOON,ioos:station:TCOON:057:1,2015-06-08T01:12:00Z,28.4460,-96.3961,28.1,1111122 
TCOON,ioos:station:TCOON:057:1,2015-06-08T02:06:00Z,28.4460,-96.3961,28.0,1111122 
TCOON,ioos:station:TCOON:057:1,2015-06-08T03:06:00Z,28.4460,-96.3961,27.9,1111122 
TCOON,ioos:station:TCOON:057:1,2015-06-08T04:06:00Z,28.4460,-96.3961,27.7,1111122 
TCOON,ioos:station:TCOON:057:1,2015-06-08T05:06:00Z,28.4460,-96.3961,27.5,1111122 
TCOON,ioos:station:TCOON:057:1,2015-06-08T06:18:00Z,28.4460,-96.3961,27.5,1111122 
TCOON,ioos:station:TCOON:057:1,2015-06-08T07:30:00Z,28.4460,-96.3961,27.3,1111122 
TCOON,ioos:station:TCOON:057:1,2015-06-08T08:12:00Z,28.4460,-96.3961,26.7,1111122 
TCOON,ioos:station:TCOON:057:1,2015-06-08T09:42:00Z,28.4460,-96.3961,26.1,1111122 
TCOON,ioos:station:TCOON:057:1,2015-06-08T10:06:00Z,28.4460,-96.3961,26.0,1111122 
TCOON,ioos:station:TCOON:057:1,2015-06-08T11:12:00Z,28.4460,-96.3961,26.2,1111122 
TCOON,ioos:station:TCOON:057:1,2015-06-08T12:06:00Z,28.4460,-96.3961,26.7,1111122 
TCOON,ioos:station:TCOON:057:1,2015-06-08T13:12:00Z,28.4460,-96.3961,27.4,1111122 
TCOON,ioos:station:TCOON:057:1,2015-06-08T14:12:00Z,28.4460,-96.3961,27.9,1111122 
TCOON,ioos:station:TCOON:057:1,2015-06-08T15:12:00Z,28.4460,-96.3961,28.1,1111122 
TCOON,ioos:station:TCOON:057:1,2015-06-08T16:12:00Z,28.4460,-96.3961,28.2,1111122 
TCOON,ioos:station:TCOON:057:1,2015-06-08T17:12:00Z,28.4460,-96.3961,28.0,1111122 
TCOON,ioos:station:TCOON:057:1,2015-06-08T18:12:00Z,28.4460,-96.3961,28.1,1111122 
TCOON,ioos:station:TCOON:057:1,2015-06-08T19:12:00Z,28.4460,-96.3961,28.2,1111122 
TCOON,ioos:station:TCOON:057:1,2015-06-08T20:30:00Z,28.4460,-96.3961,28.5,1111122 
TCOON,ioos:station:TCOON:057:1,2015-06-08T21:12:00Z,28.4460,-96.3961,28.6,1111122 
TCOON,ioos:station:TCOON:057:1,2015-06-08T22:18:00Z,28.4460,-96.3961,28.7,1111122 
TCOON,ioos:station:TCOON:057:1,2015-06-08T23:12:00Z,28.4460,-96.3961,28.7,1111122 
TCOON,ioos:station:TCOON:057:1,2015-06-09T00:06:00Z,28.4460,-96.3961,28.4,1111122 
TCOON,ioos:station:TCOON:057:1,2015-06-09T01:06:00Z,28.4460,-96.3961,28.2,1111122 
TCOON,ioos:station:TCOON:057:1,2015-06-09T02:06:00Z,28.4460,-96.3961,28.0,1111122 
TCOON,ioos:station:TCOON:057:1,2015-06-09T03:12:00Z,28.4460,-96.3961,28.1,1111122 
TCOON,ioos:station:TCOON:057:1,2015-06-09T04:12:00Z,28.4460,-96.3961,27.9,1111122 
TCOON,ioos:station:TCOON:057:1,2015-06-09T05:12:00Z,28.4460,-96.3961,27.8,1111122 
TCOON,ioos:station:TCOON:057:1,2015-06-09T07:06:00Z,28.4460,-96.3961,26.6,1111122 
TCOON,ioos:station:TCOON:057:1,2015-06-09T08:12:00Z,28.4460,-96.3961,26.3,1111122 
TCOON,ioos:station:TCOON:057:1,2015-06-09T09:12:00Z,28.4460,-96.3961,26.1,1111122 
TCOON,ioos:station:TCOON:057:1,2015-06-09T10:18:00Z,28.4460,-96.3961,26.2,1111122 
TCOON,ioos:station:TCOON:057:1,2015-06-09T11:12:00Z,28.4460,-96.3961,26.1,1111122 
TCOON,ioos:station:TCOON:057:1,2015-06-09T12:12:00Z,28.4460,-96.3961,26.6,1111122 
TCOON,ioos:station:TCOON:057:1,2015-06-09T13:12:00Z,28.4460,-96.3961,27.5,1111122 
TCOON,ioos:station:TCOON:057:1,2015-06-09T14:12:00Z,28.4460,-96.3961,28.0,1111122 
TCOON,ioos:station:TCOON:057:1,2015-06-09T15:12:00Z,28.4460,-96.3961,28.4,1111122 
TCOON,ioos:station:TCOON:057:1,2015-06-09T16:12:00Z,28.4460,-96.3961,28.3,1111122 
TCOON,ioos:station:TCOON:057:1,2015-06-09T17:12:00Z,28.4460,-96.3961,28.3,1111122 
TCOON,ioos:station:TCOON:057:1,2015-06-09T18:12:00Z,28.4460,-96.3961,28.6,1111122 
TCOON,ioos:station:TCOON:057:1,2015-06-09T19:12:00Z,28.4460,-96.3961,28.7,1111122 
TCOON,ioos:station:TCOON:057:1,2015-06-09T20:12:00Z,28.4460,-96.3961,28.8,1111122 
TCOON,ioos:station:TCOON:057:1,2015-06-09T21:12:00Z,28.4460,-96.3961,28.6,1111122 
TCOON,ioos:station:TCOON:057:1,2015-06-09T22:18:00Z,28.4460,-96.3961,28.6,1111122 
TCOON,ioos:station:TCOON:057:1,2015-06-09T23:12:00Z,28.4460,-96.3961,28.7,1111122 
TCOON,ioos:station:TCOON:057:1,2015-06-10T00:06:00Z,28.4460,-96.3961,28.6,1111122 
TCOON,ioos:station:TCOON:057:1,2015-06-10T01:12:00Z,28.4460,-96.3961,28.3,1111122 
TCOON,ioos:station:TCOON:057:1,2015-06-10T02:12:00Z,28.4460,-96.3961,28.2,1111122 
TCOON,ioos:station:TCOON:057:1,2015-06-10T03:12:00Z,28.4460,-96.3961,28.2,1111122 
TCOON,ioos:station:TCOON:057:1,2015-06-10T04:12:00Z,28.4460,-96.3961,28.1,1111122 
TCOON,ioos:station:TCOON:057:1,2015-06-10T05:12:00Z,28.4460,-96.3961,27.9,1111122 
TCOON,ioos:station:TCOON:057:1,2015-06-10T06:12:00Z,28.4460,-96.3961,27.7,1111122 
TCOON,ioos:station:TCOON:057:1,2015-06-10T07:18:00Z,28.4460,-96.3961,26.9,1111122 
TCOON,ioos:station:TCOON:057:1,2015-06-10T08:12:00Z,28.4460,-96.3961,26.3,1111122 
TCOON,ioos:station:TCOON:057:1,2015-06-10T09:12:00Z,28.4460,-96.3961,26.3,1111122 
TCOON,ioos:station:TCOON:057:1,2015-06-10T10:12:00Z,28.4460,-96.3961,26.6,1111122 
TCOON,ioos:station:TCOON:057:1,2015-06-10T11:12:00Z,28.4460,-96.3961,26.3,1111122 
TCOON,ioos:station:TCOON:057:1,2015-06-10T12:12:00Z,28.4460,-96.3961,26.7,1111122 
TCOON,ioos:station:TCOON:057:1,2015-06-10T13:12:00Z,28.4460,-96.3961,27.8,1111122 
TCOON,ioos:station:TCOON:057:1,2015-06-10T14:12:00Z,28.4460,-96.3961,27.9,1111122 
TCOON,ioos:station:TCOON:057:1,2015-06-10T15:12:00Z,28.4460,-96.3961,28.0,1111122 
TCOON,ioos:station:TCOON:057:1,2015-06-10T16:12:00Z,28.4460,-96.3961,28.2,1111122 
TCOON,ioos:station:TCOON:057:1,2015-06-10T17:18:00Z,28.4460,-96.3961,28.8,1111122 
TCOON,ioos:station:TCOON:057:1,2015-06-10T18:12:00Z,28.4460,-96.3961,28.6,1111122 
TCOON,ioos:station:TCOON:057:1,2015-06-10T19:12:00Z,28.4460,-96.3961,28.6,1111122 
TCOON,ioos:station:TCOON:057:1,2015-06-10T20:12:00Z,28.4460,-96.3961,28.6,1111122 
TCOON,ioos:station:TCOON:057:1,2015-06-10T21:12:00Z,28.4460,-96.3961,28.7,1111122 
TCOON,ioos:station:TCOON:057:1,2015-06-10T22:30:00Z,28.4460,-96.3961,28.9,1111122 
TCOON,ioos:station:TCOON:057:1,2015-06-10T23:12:00Z,28.4460,-96.3961,28.8,1111122 
TCOON,ioos:station:TCOON:057:1,2015-06-11T00:12:00Z,28.4460,-96.3961,28.8,1111122 
TCOON,ioos:station:TCOON:057:1,2015-06-11T01:12:00Z,28.4460,-96.3961,28.4,1111122 
TCOON,ioos:station:TCOON:057:1,2015-06-11T02:06:00Z,28.4460,-96.3961,28.3,1111122 
TCOON,ioos:station:TCOON:057:1,2015-06-11T03:06:00Z,28.4460,-96.3961,28.5,1111122 
TCOON,ioos:station:TCOON:057:1,2015-06-11T04:12:00Z,28.4460,-96.3961,28.4,1111122 
TCOON,ioos:station:TCOON:057:1,2015-06-11T05:12:00Z,28.4460,-96.3961,28.3,1111122 
TCOON,ioos:station:TCOON:057:1,2015-06-11T07:06:00Z,28.4460,-96.3961,28.2,1111122 
TCOON,ioos:station:TCOON:057:1,2015-06-11T08:12:00Z,28.4460,-96.3961,28.1,1111122 
TCOON,ioos:station:TCOON:057:1,2015-06-11T09:12:00Z,28.4460,-96.3961,28.0,1111122 
TCOON,ioos:station:TCOON:057:1,2015-06-11T10:12:00Z,28.4460,-96.3961,27.9,1111122 
TCOON,ioos:station:TCOON:057:1,2015-06-11T11:12:00Z,28.4460,-96.3961,27.9,1111122 
TCOON,ioos:station:TCOON:057:1,2015-06-11T12:12:00Z,28.4460,-96.3961,28.0,1111122 
TCOON,ioos:station:TCOON:057:1,2015-06-11T13:12:00Z,28.4460,-96.3961,28.3,1111122 
TCOON,ioos:station:TCOON:057:1,2015-06-11T14:12:00Z,28.4460,-96.3961,28.4,1111122 
TCOON,ioos:station:TCOON:057:1,2015-06-11T15:12:00Z,28.4460,-96.3961,28.3,1111122 
TCOON,ioos:station:TCOON:057:1,2015-06-11T16:12:00Z,28.4460,-96.3961,28.5,1111122 
TCOON,ioos:station:TCOON:057:1,2015-06-11T17:12:00Z,28.4460,-96.3961,28.6,1111122 
TCOON,ioos:station:TCOON:057:1,2015-06-11T18:12:00Z,28.4460,-96.3961,28.8,1111122 
TCOON,ioos:station:TCOON:057:1,2015-06-11T19:12:00Z,28.4460,-96.3961,28.9,1111122 
TCOON,ioos:station:TCOON:057:1,2015-06-11T20:12:00Z,28.4460,-96.3961,28.9,1111122 
TCOON,ioos:station:TCOON:057:1,2015-06-11T21:12:00Z,28.4460,-96.3961,28.8,1111122 
TCOON,ioos:station:TCOON:057:1,2015-06-11T22:18:00Z,28.4460,-96.3961,28.8,1111122 
TCOON,ioos:station:TCOON:057:1,2015-06-11T23:12:00Z,28.4460,-96.3961,29.0,1111122 
TCOON,ioos:station:TCOON:057:1,2015-06-12T00:18:00Z,28.4460,-96.3961,29.0,1111122 
TCOON,ioos:station:TCOON:057:1,2015-06-12T01:12:00Z,28.4460,-96.3961,28.8,1111122 
TCOON,ioos:station:TCOON:057:1,2015-06-12T02:12:00Z,28.4460,-96.3961,28.7,1111122 
TCOON,ioos:station:TCOON:057:1,2015-06-12T03:12:00Z,28.4460,-96.3961,28.5,1111122 
TCOON,ioos:station:TCOON:057:1,2015-06-12T04:12:00Z,28.4460,-96.3961,28.3,1111122 
TCOON,ioos:station:TCOON:057:1,2015-06-12T05:06:00Z,28.4460,-96.3961,28.3,1111122 
TCOON,ioos:station:TCOON:057:1,2015-06-12T07:06:00Z,28.4460,-96.3961,28.3,1111122 
TCOON,ioos:station:TCOON:057:1,2015-06-12T08:12:00Z,28.4460,-96.3961,28.2,1111122 
TCOON,ioos:station:TCOON:057:1,2015-06-12T09:12:00Z,28.4460,-96.3961,27.8,1111122 
TCOON,ioos:station:TCOON:057:1,2015-06-12T10:06:00Z,28.4460,-96.3961,28.0,1111122 
TCOON,ioos:station:TCOON:057:1,2015-06-12T11:12:00Z,28.4460,-96.3961,28.0,1111122 
TCOON,ioos:station:TCOON:057:1,2015-06-12T12:12:00Z,28.4460,-96.3961,28.1,1111122 
TCOON,ioos:station:TCOON:057:1,2015-06-12T13:12:00Z,28.4460,-96.3961,28.3,1111122 
TCOON,ioos:station:TCOON:057:1,2015-06-12T14:12:00Z,28.4460,-96.3961,28.4,1111122 
TCOON,ioos:station:TCOON:057:1,2015-06-12T15:18:00Z,28.4460,-96.3961,28.4,1111122 
TCOON,ioos:station:TCOON:057:1,2015-06-12T16:12:00Z,28.4460,-96.3961,28.5,1111122 
TCOON,ioos:station:TCOON:057:1,2015-06-12T17:12:00Z,28.4460,-96.3961,29.0,1111122 
TCOON,ioos:station:TCOON:057:1,2015-06-12T18:12:00Z,28.4460,-96.3961,28.9,1111122 
TCOON,ioos:station:TCOON:057:1,2015-06-12T19:12:00Z,28.4460,-96.3961,29.0,1111122 
TCOON,ioos:station:TCOON:057:1,2015-06-12T20:12:00Z,28.4460,-96.3961,29.0,1111122 
TCOON,ioos:station:TCOON:057:1,2015-06-12T21:12:00Z,28.4460,-96.3961,29.3,1111122 
TCOON,ioos:station:TCOON:057:1,2015-06-12T22:12:00Z,28.4460,-96.3961,29.3,1111122 
TCOON,ioos:station:TCOON:057:1,2015-06-12T23:12:00Z,28.4460,-96.3961,29.4,1111122 
TCOON,ioos:station:TCOON:057:1,2015-06-13T00:12:00Z,28.4460,-96.3961,28.9,1111122 
TCOON,ioos:station:TCOON:057:1,2015-06-13T01:06:00Z,28.4460,-96.3961,28.6,1111122 
TCOON,ioos:station:TCOON:057:1,2015-06-13T02:06:00Z,28.4460,-96.3961,28.3,1111122 
TCOON,ioos:station:TCOON:057:1,2015-06-13T03:12:00Z,28.4460,-96.3961,28.1,1111122 
TCOON,ioos:station:TCOON:057:1,2015-06-13T04:12:00Z,28.4460,-96.3961,28.1,1111122 
TCOON,ioos:station:TCOON:057:1,2015-06-13T05:12:00Z,28.4460,-96.3961,28.1,1111122 
TCOON,ioos:station:TCOON:057:1,2015-06-13T06:18:00Z,28.4460,-96.3961,28.1,1111122 
TCOON,ioos:station:TCOON:057:1,2015-06-13T07:18:00Z,28.4460,-96.3961,28.2,1111122 
TCOON,ioos:station:TCOON:057:1,2015-06-13T08:12:00Z,28.4460,-96.3961,28.0,1111122 
TCOON,ioos:station:TCOON:057:1,2015-06-13T09:12:00Z,28.4460,-96.3961,28.2,1111122 
TCOON,ioos:station:TCOON:057:1,2015-06-13T10:12:00Z,28.4460,-96.3961,28.0,1111122 
TCOON,ioos:station:TCOON:057:1,2015-06-13T11:12:00Z,28.4460,-96.3961,28.0,1111122 
TCOON,ioos:station:TCOON:057:1,2015-06-13T12:12:00Z,28.4460,-96.3961,27.9,1111122 
TCOON,ioos:station:TCOON:057:1,2015-06-13T13:12:00Z,28.4460,-96.3961,28.1,1111122 
TCOON,ioos:station:TCOON:057:1,2015-06-13T14:12:00Z,28.4460,-96.3961,27.8,1111122 
TCOON,ioos:station:TCOON:057:1,2015-06-13T15:12:00Z,28.4460,-96.3961,27.1,1111122 
TCOON,ioos:station:TCOON:057:1,2015-06-13T16:12:00Z,28.4460,-96.3961,27.8,1111122 
TCOON,ioos:station:TCOON:057:1,2015-06-13T17:12:00Z,28.4460,-96.3961,28.1,1111122 
TCOON,ioos:station:TCOON:057:1,2015-06-13T18:12:00Z,28.4460,-96.3961,28.2,1111122 
TCOON,ioos:station:TCOON:057:1,2015-06-13T19:12:00Z,28.4460,-96.3961,28.6,1111122 
TCOON,ioos:station:TCOON:057:1,2015-06-13T20:12:00Z,28.4460,-96.3961,26.1,1111122 
TCOON,ioos:station:TCOON:057:1,2015-06-13T21:12:00Z,28.4460,-96.3961,28.0,1111122 
TCOON,ioos:station:TCOON:057:1,2015-06-13T22:12:00Z,28.4460,-96.3961,28.1,1111122 